Quantico, VA

4:19 AM EST on February 14, 2016 (GMT -0500)
Quantico Marine Corps Air Facility

Weather History for KNYG - June, 2013

Change the Weather History Date:

Sunday, June 30, 2013

  Actual Average Record
Temperature  
Mean Temperature 81 °F -  
Max Temperature 87 °F 83 °F 93 °F (2012)
Min Temperature 75 °F 65 °F 61 °F (2000)
Cooling Degree Days 16    
Growing Degree Days 31 (Base 50)    
Moisture  
Dew Point 73 °F    
Average Humidity 80    
Maximum Humidity 89    
Minimum Humidity 59    
Precipitation  
Precipitation 0.05 in - - ()
Sea Level Pressure  
Sea Level Pressure 29.79 in    
Wind  
Wind Speed 8 mph (SSW)    
Max Wind Speed 14 mph    
Max Gust Speed 16 mph    
Visibility 10 miles    
Events Thunderstorm    
Averages and records for this station are not official NWS values.
T = Trace of Precipitation, MM = Missing Value Source: NWS Daily Summary

Daily Weather History Graph

Daily Weather History Graph

Search for Another Location

Airport or City:

Trip Planner

Search our weather history database for the weather conditions in past years. The results will help you decide how hot, cold, wet, or windy it might be!

Date:

Astronomy

Jun. 30, 2013 Rise Set
Actual Time 5:48 AM EDT 8:37 PM EDT
Civil Twilight 5:16 AM EDT 9:08 PM EDT
Nautical Twilight 4:37 AM EDT 9:48 PM EDT
Astronomical Twilight 3:51 AM EDT 10:33 PM EDT
Moon 12:42 AM EDT (6/30) 1:53 PM EDT (6/30)
Length of Visible Light 15h 52m
Length of Day
14h 48m
Last Quarter, 45% of the Moon is Illuminated
Jun 30
Last Quarter
Jul 8
New
Jul 15
First Quarter
Jul 22
Full
Jul 29
Last Quarter

Hourly Weather History & Observations

Time (EDT) Temp. Heat Index Dew Point Humidity Pressure Visibility Wind Dir Wind Speed Gust Speed Precip Events Conditions
12:56 AM 79.0 °F - 70.0 °F 74% 29.72 in 10.0 mi SW 4.6 mph - N/A   Clear
1:56 AM 78.1 °F - 71.1 °F 79% 29.72 in 10.0 mi SW 6.9 mph - N/A   Clear
2:56 AM 77.0 °F - 70.0 °F 79% 29.72 in 10.0 mi SW 4.6 mph - N/A   Clear
3:56 AM 77.0 °F - 73.0 °F 88% 29.71 in 10.0 mi SSW 11.5 mph - N/A   Partly Cloudy
4:23 AM 77.0 °F - 73.4 °F 89% 29.72 in 10.0 mi SSW 11.5 mph - N/A   Mostly Cloudy
4:56 AM 75.9 °F - 72.0 °F 87% 29.73 in 10.0 mi SW 6.9 mph - N/A   Mostly Cloudy
5:24 AM 77.0 °F - 73.4 °F 89% 29.74 in 10.0 mi SSW 9.2 mph - N/A   Mostly Cloudy
5:56 AM 77.0 °F - 72.0 °F 84% 29.75 in 9.0 mi SSW 11.5 mph - N/A   Overcast
6:37 AM 77.0 °F - 73.4 °F 89% 29.75 in 10.0 mi SSW 13.8 mph - N/A   Overcast
6:56 AM 78.1 °F - 73.0 °F 84% 29.76 in 9.0 mi SSW 12.7 mph - N/A   Overcast
7:56 AM 78.1 °F - 73.0 °F 84% 29.78 in 10.0 mi SSW 11.5 mph - N/A   Overcast
8:56 AM 78.1 °F - 73.0 °F 84% 29.80 in 10.0 mi SW 8.1 mph - N/A   Overcast
9:36 AM 78.8 °F - 71.6 °F 78% 29.79 in 10.0 mi WSW 5.8 mph - N/A   Overcast
9:56 AM 78.1 °F - 73.0 °F 84% 29.79 in 6.0 mi WSW 5.8 mph - 0.01 in   Overcast
10:11 AM 78.8 °F - 73.4 °F 83% 29.79 in 8.0 mi SSW 5.8 mph - 0.01 in   Overcast
10:25 AM 78.8 °F - 73.4 °F 83% 29.80 in 10.0 mi SSW 11.5 mph - 0.01 in   Overcast
10:53 AM 78.1 °F - 73.0 °F 84% 29.80 in 9.0 mi SSW 9.2 mph - 0.01 in   Overcast
11:56 AM 81.0 °F 86.2 °F 73.9 °F 79% 29.79 in 10.0 mi SSW 5.8 mph - N/A   Partly Cloudy
12:56 PM 82.9 °F 89.4 °F 73.9 °F 74% 29.79 in 10.0 mi South 5.8 mph - N/A   Clear
1:56 PM 82.0 °F 87.4 °F 73.0 °F 74% 29.79 in 10.0 mi South 13.8 mph - 0.01 in   Overcast
2:56 PM 84.0 °F 90.2 °F 73.0 °F 69% 29.78 in 10.0 mi Calm Calm - 0.01 in   Clear
3:56 PM 84.9 °F 90.7 °F 72.0 °F 65% 29.77 in 10.0 mi South 4.6 mph - N/A   Clear
4:56 PM 87.1 °F 92.8 °F 71.1 °F 59% 29.77 in 10.0 mi SSW 8.1 mph - N/A   Clear
5:56 PM 84.0 °F 90.2 °F 73.0 °F 69% 29.79 in 10.0 mi SSW 9.2 mph - N/A   Clear
6:56 PM 82.9 °F 90.2 °F 75.0 °F 77% 29.80 in 10.0 mi SSW 8.1 mph - N/A   Mostly Cloudy
7:56 PM 82.9 °F 89.4 °F 73.9 °F 74% 29.81 in 10.0 mi South 11.5 mph - N/A   Partly Cloudy
8:42 PM 82.4 °F 88.2 °F 73.4 °F 74% 29.83 in 10.0 mi SW 8.1 mph - N/A Thunderstorm Thunderstorm
8:56 PM 78.1 °F - 72.0 °F 81% 29.84 in 10.0 mi Variable 4.6 mph 16.1 mph N/A   Overcast
9:47 PM 78.8 °F - 73.4 °F 83% 29.85 in 10.0 mi SW 9.2 mph - 0.01 in   Overcast
9:56 PM 78.1 °F - 73.0 °F 84% 29.86 in 10.0 mi SW 6.9 mph - 0.01 in   Overcast
10:12 PM 78.8 °F - 73.4 °F 83% 29.86 in 10.0 mi Variable 4.6 mph - N/A   Mostly Cloudy
10:56 PM 75.9 °F - 69.1 °F 79% 29.87 in 10.0 mi SW 5.8 mph - N/A   Partly Cloudy
11:56 PM 75.0 °F - 69.1 °F 82% 29.88 in 10.0 mi Calm Calm - N/A   Mostly Cloudy